PROFILE

 METAR AND TAF INFORMATION
ADDS - METARS form results

(0523 UTC 26 January 2021)
http://aviationweather.gov/metar/data/
 
LFBZ 260500Z AUTO 12005KT CAVOK 01/01 Q1022 TEMPO 3000 BR
LFBZ 260430Z AUTO 14004KT CAVOK 02/01 Q1022 TEMPO 3000 BR
TAF LFBZ 252300Z 2600/2624 12005KT 9999 BKN035 PROB30 2603/2607 3000 BR TEMPO 2613/2624 3000 -RA BKN010 

 AIRPORT MAP

 RUNWAY INFORMATION
Runway 09 Runway length 7382 ft Runway width 148 ft
Runway elevation 242 ft Runway displaced threshold 656 ft Runway heading 89
Runway 27 Runway length 7382 ft Runway width 148 ft
Runway elevation 219 ft Runway displaced threshold 0 ft Runway heading 269

 AIRPORT FREQUENCIES
Type APP Name BIARRITZ A Frequency 125.6 MHZ
Type ATIS Name ATIS Frequency 128.225 MHZ
Type GND Name BIARRITZ G Frequency 121.95 MHZ
Type TWR Name BIARRITZ T Frequency 118.7 MHZ

 AIRPORT NEAR NAVIGATION AIDS
Type VOR-DME Name Biarritz Frequency 114150 KHZ
Type NDB Name Biarritz Frequency 341 KHZ